[[{"header":{"parameterUnit":"m.s-1","parameterCategory":1,"la1":30.2991,"la2":30.254,"lo1":-89.0895,"lo2":-89.0444,"dy":0.0017,"dx":0.0017,"nx":28,"ny":28,"refTime":"2023-07-22T21:00:00:Z","depth":0,"parameterNumber":2,"parameterNumberName":"U-component_of_WINDS"},"data":[0,0,0,0,0,0,0,0,0,0,0,0,0,0,0,0,0,0,0,0,0,0,0,0,0,0,0,0,0,0,0,0,0,0,0,0,0,0,0,0,0,0,0,0,0,0,0,0,0,0,0,0,0,0,0,0,0,0,-4.6783,-4.6782,0,-4.6687,-4.6686,-4.6685,-4.6615,-4.6615,-4.6614,-4.6614,-4.6511,-4.6509,-4.6507,0,0,0,0,0,0,0,0,0,0,0,0,0,-4.69,-4.6898,-4.6783,-4.6782,-4.6781,-4.6688,-4.6686,-4.6685,-4.6616,-4.6615,-4.6614,-4.6614,-4.6512,-4.6509,-4.6506,0,0,0,0,0,0,0,0,0,0,0,0,0,-4.6831,-4.6897,-4.6783,-4.6735,-4.673,-4.6688,-4.6686,-4.6685,-4.6616,-4.6615,-4.6614,-4.6613,-4.6512,-4.6509,-4.6506,-4.6503,0,0,-4.6496,-4.6495,0,0,0,0,0,0,0,0,-4.6835,-4.6827,-4.6743,-4.6738,-4.6732,-4.6663,-4.669,-4.6624,-4.6616,-4.6659,-4.6614,-4.6613,-4.6562,-4.6554,-4.6538,-4.6498,-4.6494,-4.6496,-4.6494,-4.6492,-4.6491,0,0,0,0,0,0,0,-4.684,-4.6831,-4.6745,-4.6742,-4.6736,-4.6716,-4.6705,-4.6677,-4.6616,-4.6655,-4.665,-4.664,-4.6559,-4.6542,-4.6535,-4.6492,-4.6496,-4.6493,-4.6491,-4.6489,-4.644,-4.6441,0,0,0,0,0,0,-4.6853,-4.6835,-4.6748,-4.6742,-4.6783,-4.6715,-4.6703,-4.6686,-4.6616,-4.6605,-4.6641,-4.6637,-4.6548,-4.6539,-4.6531,-4.652,-4.6492,-4.6489,-4.6487,-4.6439,-4.644,-4.6441,0,0,0,0,0,0,-4.6856,-4.6846,-4.6752,-4.6787,-4.6774,-4.6714,-4.6695,-4.6684,-4.6667,-4.6605,-4.6594,-4.6635,-4.6547,-4.6536,-4.651,-4.6516,-4.6488,-4.6485,-4.6438,-4.644,-4.644,-4.65,0,0,0,0,0,0,-4.6859,-4.6847,-4.6847,-4.6788,-4.6772,-4.6735,-4.6696,-4.6683,-4.6662,-4.6657,-4.6597,-4.6586,-4.6545,-4.6515,-4.6507,-4.651,-4.6482,-4.6438,-4.6439,-4.644,-4.6497,-4.6502,-4.6507,0,0,0,0,0,-4.6864,-4.6868,-4.6848,-4.6838,-4.6771,-4.6735,-4.6726,-4.668,-4.6663,-4.6661,-4.6621,-4.6588,-4.6517,-4.6513,-4.6503,-4.6506,-4.6437,-4.6439,-4.644,-4.6494,-4.6501,-4.6507,0,0,0,0,0,0,-4.6928,-4.6859,-4.6836,-4.6821,-4.6785,-4.6723,-4.672,-4.669,-4.6656,-4.6652,-4.6595,-4.6582,-4.6561,-4.6531,-4.6528,-4.6497,-4.6472,-4.6472,-4.6517,-4.6523,-4.6529,-4.6535,-4.6479,0,0,0,0,0,-4.6941,-4.6919,-4.6859,-4.6852,-4.6835,-4.6781,-4.6763,-4.6731,-4.669,-4.6674,-4.6632,-4.6592,-4.656,-4.654,-4.6508,-4.6492,-4.6476,-4.6489,-4.6494,-4.6499,-4.6498,-4.6484,-4.6488,-4.6446,-4.6446,-4.6446,0,0,-4.6966,-4.6926,-4.6915,-4.6863,-4.6831,-4.6808,-4.6768,-4.6745,-4.6726,-4.667,-4.6642,-4.661,-4.6561,-4.654,-4.6528,-4.6514,-4.6507,-4.6501,-4.6505,-4.6502,-4.6486,-4.649,-4.6494,-4.6447,-4.6447,-4.6446,0,0,-4.7,-4.6969,-4.6957,-4.6926,-4.6878,-4.6842,-4.6839,-4.6782,-4.6759,-4.6731,-4.6687,-4.6662,-4.661,-4.6576,-4.6552,-4.657,-4.6537,-4.6561,-4.6588,-4.6575,-4.6578,-4.658,-4.6584,-4.6586,-4.6561,-4.6561,-4.6562,0,-4.7037,-4.7002,-4.6955,-4.6934,-4.6911,-4.686,-4.6846,-4.6818,-4.6761,-4.6745,-4.6731,-4.6662,-4.6626,-4.6593,-4.6598,-4.6581,-4.6573,-4.6567,-4.6582,-4.6584,-4.6585,-4.6588,-4.659,-4.6564,-4.6564,-4.6564,-4.6564,0,-4.7048,-4.7024,-4.702,-4.6968,-4.6944,-4.6928,-4.6876,-4.6857,-4.6827,-4.6791,-4.6761,-4.6715,-4.6671,-4.6662,-4.6632,-4.6624,-4.6616,-4.6593,-4.6567,-4.6593,-4.6594,-4.6595,-4.6569,-4.6568,-4.6567,-4.6566,0,0,-4.7119,-4.7041,-4.704,-4.7014,-4.6957,-4.6936,-4.6915,-4.6873,-4.6857,-4.6819,-4.6798,-4.6754,-4.6731,-4.6703,-4.6669,-4.6658,-4.6671,-4.6634,-4.6632,-4.664,-4.6655,-4.6672,-4.6675,-4.6649,-4.6649,-4.6649,-4.6659,0,-4.7141,-4.7104,-4.706,-4.7036,-4.7011,-4.6962,-4.6943,-4.6904,-4.687,-4.6842,-4.6803,-4.6772,-4.6745,-4.6728,-4.6715,-4.6672,-4.6673,-4.6671,-4.6626,-4.6625,-4.6638,-4.6676,-4.6694,-4.6705,-4.6659,-4.6659,-4.6659,0,-4.7163,-4.7128,-4.7102,-4.7045,-4.7033,-4.7018,-4.6974,-4.6949,-4.6903,-4.6878,-4.6847,-4.681,-4.6782,-4.6761,-4.6719,-4.6719,-4.6698,-4.6674,-4.6673,-4.6665,-4.6643,-4.6666,-4.6708,-4.6709,-4.666,-4.666,-4.666,0,-4.7213,-4.7161,-4.7137,-4.7117,-4.7051,-4.7041,-4.7012,-4.6965,-4.6942,-4.6903,-4.6887,-4.6845,-4.6822,-4.6789,-4.674,-4.6729,-4.6703,-4.6678,-4.6679,-4.668,-4.6674,-4.6675,-4.671,-4.6664,-4.6664,-4.6664,-4.6664,0,-4.7242,-4.7227,-4.7159,-4.7145,-4.7125,-4.7075,-4.7056,-4.7023,-4.6981,-4.6957,-4.6912,-4.6889,-4.6827,-4.6797,-4.6758,-4.6728,-4.6718,-4.6695,-4.6684,-4.6698,-4.6701,-4.6682,-4.6679,-4.6665,-4.6665,-4.6665,-4.6664,0,-4.7294,-4.7249,-4.7219,-4.7159,-4.7144,-4.7132,-4.7079,-4.7061,-4.7024,-4.6994,-4.6984,-4.6925,-4.6886,-4.6835,-4.678,-4.6753,-4.6727,-4.6712,-4.6743,-4.6737,-4.6739,-4.6739,-4.6762,-4.6761,-4.6719,-4.6719,-4.672,0,-4.7314,-4.7301,-4.724,-4.7222,-4.7195,-4.7166,-4.7142,-4.7091,-4.7067,-4.7012,-4.7001,-4.6959,-4.6923,-4.6863,-4.6813,-4.677,-4.6752,-4.6763,-4.6745,-4.6758,-4.6748,-4.6749,-4.6746,-4.6767,-4.6767,-4.6768,-4.6768,0,-4.7353,-4.7331,-4.7299,-4.726,-4.7233,-4.7199,-4.7162,-4.7149,-4.7089,-4.7064,-4.7025,-4.6997,-4.6941,-4.6899,-4.6849,-4.6816,-4.6781,-4.6775,-4.6772,-4.6785,-4.6802,-4.679,-4.6753,-4.6774,-4.6773,-4.6773,-4.6773,-4.6773,-4.7387,-4.7373,-4.7327,-4.7293,-4.726,-4.7227,-4.7207,-4.7168,-4.7135,-4.7087,-4.7058,-4.7019,-4.697,-4.6899,-4.6868,-4.6834,-4.6821,-4.6818,-4.6817,-4.6816,-4.682,-4.681,-4.6825,-4.6825,-4.6825,-4.6825,-4.6824,0,-4.7421,-4.739,-4.7359,-4.731,-4.7282,-4.7255,-4.7212,-4.719,-4.7157,-4.7116,-4.7081,-4.7034,-4.6993,-4.694,-4.6894,-4.6877,-4.6859,-4.6866,-4.6866,-4.6858,-4.6836,-4.6841,-4.6881,-4.6881,-4.6881,-4.6881,-4.6881,-4.6881,-4.7436,-4.7409,-4.7382,-4.7337,-4.7305,-4.7268,-4.7246,-4.7214,-4.718,-4.7131,-4.7097,-4.7064,-4.7016,-4.6966,-4.6925,-4.691,-4.6894,-4.6905,-4.6885,-4.6865,-4.686,-4.6855,-4.686,-4.6903,-4.6903,-4.691,-4.691,-4.691]},{"header":{"parameterUnit":"m.s-1","parameterCategory":1,"la1":30.2991,"la2":30.254,"lo1":-89.0895,"lo2":-89.0444,"dy":0.0017,"dx":0.0017,"nx":28,"ny":28,"refTime":"2023-07-22T21:00:00:Z","depth":0,"parameterNumber":3,"parameterNumberName":"V-component_of_WINDS"},"data":[0,0,0,0,0,0,0,0,0,0,0,0,0,0,0,0,0,0,0,0,0,0,0,0,0,0,0,0,0,0,0,0,0,0,0,0,0,0,0,0,0,0,0,0,0,0,0,0,0,0,0,0,0,0,0,0,0,0,-1.3721,-1.3719,0,-1.3508,-1.3505,-1.3503,-1.3369,-1.3368,-1.3368,-1.3367,-1.3142,-1.3137,-1.3132,0,0,0,0,0,0,0,0,0,0,0,0,0,-1.4002,-1.3998,-1.3722,-1.3719,-1.3716,-1.3508,-1.3505,-1.3502,-1.3369,-1.3368,-1.3367,-1.3367,-1.3144,-1.3138,-1.3131,0,0,0,0,0,0,0,0,0,0,0,0,0,-1.3844,-1.3996,-1.3722,-1.3625,-1.3614,-1.3509,-1.3505,-1.3501,-1.3369,-1.3368,-1.3367,-1.3366,-1.3146,-1.3138,-1.313,-1.3103,0,0,-1.3106,-1.3103,0,0,0,0,0,0,0,0,-1.3853,-1.3833,-1.3642,-1.3631,-1.3619,-1.3464,-1.3521,-1.3368,-1.337,-1.3462,-1.3367,-1.3366,-1.325,-1.3233,-1.3195,-1.3093,-1.3083,-1.3105,-1.3101,-1.3097,-1.3095,0,0,0,0,0,0,0,-1.3864,-1.3842,-1.3637,-1.3639,-1.3625,-1.3588,-1.3564,-1.3492,-1.3364,-1.3454,-1.3444,-1.3421,-1.3243,-1.3203,-1.3189,-1.308,-1.3106,-1.3099,-1.3094,-1.3091,-1.2933,-1.2933,0,0,0,0,0,0,-1.3891,-1.3852,-1.3643,-1.363,-1.3736,-1.3584,-1.3557,-1.3515,-1.3365,-1.3341,-1.3422,-1.3415,-1.3217,-1.3199,-1.3181,-1.3132,-1.3097,-1.309,-1.3085,-1.2932,-1.2933,-1.2933,0,0,0,0,0,0,-1.3898,-1.3874,-1.3652,-1.3738,-1.3707,-1.358,-1.3533,-1.3511,-1.3471,-1.3341,-1.3316,-1.3405,-1.3216,-1.3192,-1.3121,-1.3123,-1.3086,-1.3079,-1.2931,-1.2932,-1.2933,-1.3041,0,0,0,0,0,0,-1.3907,-1.3878,-1.3869,-1.3739,-1.3703,-1.3601,-1.3534,-1.3508,-1.3459,-1.3448,-1.3319,-1.3296,-1.3213,-1.3134,-1.3114,-1.3111,-1.3073,-1.2931,-1.2932,-1.2933,-1.3037,-1.3045,-1.3053,0,0,0,0,0,-1.3917,-1.3909,-1.387,-1.3845,-1.3691,-1.3602,-1.358,-1.3487,-1.346,-1.3447,-1.3362,-1.33,-1.3126,-1.3128,-1.3104,-1.31,-1.293,-1.2931,-1.2933,-1.3033,-1.3044,-1.3053,0,0,0,0,0,0,-1.4043,-1.389,-1.3845,-1.3795,-1.3712,-1.3579,-1.3562,-1.3503,-1.3424,-1.3418,-1.3302,-1.3274,-1.3213,-1.3149,-1.3154,-1.306,-1.302,-1.3017,-1.3105,-1.3114,-1.3122,-1.3138,-1.3066,0,0,0,0,0,-1.4065,-1.4008,-1.3877,-1.3845,-1.3805,-1.3691,-1.3649,-1.3583,-1.3492,-1.3456,-1.3365,-1.3277,-1.32,-1.3154,-1.3077,-1.3026,-1.2992,-1.301,-1.3018,-1.3025,-1.3023,-1.2983,-1.2987,-1.2938,-1.2938,-1.2938,0,0,-1.411,-1.4019,-1.3991,-1.3867,-1.3796,-1.3735,-1.3663,-1.3604,-1.3555,-1.3446,-1.3373,-1.3303,-1.3195,-1.3132,-1.31,-1.3077,-1.3029,-1.3027,-1.3034,-1.3027,-1.2985,-1.2989,-1.2994,-1.2939,-1.2938,-1.2938,0,0,-1.4159,-1.4088,-1.405,-1.3978,-1.387,-1.3792,-1.3783,-1.3657,-1.3606,-1.3531,-1.3445,-1.3384,-1.3259,-1.3183,-1.3128,-1.314,-1.3078,-1.3118,-1.316,-1.3122,-1.3126,-1.3129,-1.3128,-1.3129,-1.3116,-1.3117,-1.3117,0,-1.4228,-1.4137,-1.4038,-1.3981,-1.3926,-1.3824,-1.3781,-1.3715,-1.3587,-1.3549,-1.3525,-1.3359,-1.328,-1.3194,-1.3196,-1.3157,-1.3138,-1.3133,-1.3134,-1.3136,-1.3137,-1.3134,-1.3135,-1.3122,-1.3121,-1.3121,-1.312,0,-1.4223,-1.416,-1.4142,-1.402,-1.3963,-1.3914,-1.3803,-1.3756,-1.3693,-1.3616,-1.3536,-1.3436,-1.3335,-1.3309,-1.3249,-1.3212,-1.32,-1.3157,-1.3114,-1.3149,-1.3144,-1.3143,-1.313,-1.3128,-1.3126,-1.3125,0,0,-1.435,-1.417,-1.4164,-1.4104,-1.3973,-1.392,-1.3863,-1.3764,-1.3723,-1.3636,-1.3581,-1.3472,-1.3428,-1.3366,-1.3294,-1.3262,-1.3269,-1.322,-1.3216,-1.323,-1.3215,-1.3247,-1.3248,-1.3226,-1.3226,-1.3226,-1.3222,0,-1.4378,-1.4273,-1.4178,-1.4106,-1.4042,-1.394,-1.3888,-1.3799,-1.3724,-1.3655,-1.357,-1.3494,-1.3445,-1.3405,-1.3368,-1.3277,-1.3264,-1.3276,-1.3169,-1.3167,-1.3199,-1.3247,-1.3282,-1.3285,-1.322,-1.322,-1.322,0,-1.4397,-1.4313,-1.4235,-1.4103,-1.4073,-1.403,-1.3926,-1.3864,-1.3758,-1.3704,-1.3631,-1.3554,-1.3482,-1.3447,-1.3341,-1.3351,-1.3301,-1.3248,-1.3246,-1.3231,-1.3195,-1.323,-1.3284,-1.3283,-1.3217,-1.3217,-1.3218,0,-1.4492,-1.4359,-1.4293,-1.4245,-1.4092,-1.4062,-1.3996,-1.3889,-1.3832,-1.3741,-1.3702,-1.3603,-1.3548,-1.3471,-1.3366,-1.3351,-1.327,-1.3227,-1.3219,-1.3221,-1.3207,-1.3209,-1.325,-1.3179,-1.3179,-1.3179,-1.3179,0,-1.4531,-1.4486,-1.4333,-1.4292,-1.4235,-1.4124,-1.407,-1.3994,-1.3898,-1.3836,-1.374,-1.3684,-1.3551,-1.3476,-1.3393,-1.3315,-1.3292,-1.3243,-1.3221,-1.325,-1.3256,-1.3215,-1.3212,-1.3178,-1.3178,-1.3178,-1.3178,0,-1.4628,-1.4524,-1.4444,-1.4304,-1.4267,-1.4231,-1.4108,-1.4061,-1.3978,-1.3901,-1.3876,-1.3745,-1.3651,-1.3539,-1.3409,-1.3353,-1.3281,-1.325,-1.3318,-1.3305,-1.3301,-1.3302,-1.3316,-1.331,-1.3246,-1.3247,-1.3247,0,-1.4659,-1.4621,-1.4476,-1.4428,-1.4365,-1.4291,-1.4232,-1.4118,-1.406,-1.3931,-1.3898,-1.3797,-1.3711,-1.3564,-1.3454,-1.3352,-1.3316,-1.3327,-1.33,-1.3328,-1.3311,-1.3314,-1.3307,-1.3335,-1.3337,-1.3338,-1.3339,0,-1.4723,-1.4672,-1.4593,-1.4494,-1.4427,-1.4343,-1.4254,-1.422,-1.4086,-1.4025,-1.3928,-1.3861,-1.3726,-1.3625,-1.3507,-1.3433,-1.3361,-1.3348,-1.3339,-1.3369,-1.3408,-1.3382,-1.3335,-1.3348,-1.3347,-1.3346,-1.3346,-1.3346,-1.4784,-1.4744,-1.4634,-1.4546,-1.4468,-1.4386,-1.4333,-1.4242,-1.4161,-1.4044,-1.398,-1.3883,-1.3768,-1.3604,-1.3531,-1.345,-1.3425,-1.3415,-1.3412,-1.341,-1.3417,-1.3422,-1.3428,-1.3428,-1.3427,-1.3427,-1.3427,0,-1.484,-1.4763,-1.4684,-1.4563,-1.4492,-1.4433,-1.4329,-1.4273,-1.419,-1.4091,-1.4007,-1.3892,-1.3791,-1.3671,-1.3561,-1.3518,-1.3482,-1.3493,-1.3494,-1.3476,-1.3447,-1.3464,-1.3523,-1.3523,-1.3523,-1.3523,-1.3523,-1.3523,-1.486,-1.4787,-1.4722,-1.4605,-1.4526,-1.4433,-1.4378,-1.4299,-1.4219,-1.4096,-1.4012,-1.3935,-1.3825,-1.3705,-1.3607,-1.3574,-1.3536,-1.3556,-1.3513,-1.3488,-1.3479,-1.3472,-1.3486,-1.3549,-1.355,-1.3547,-1.3547,-1.3548]}]]